Location: Erraguntapalli
(18.7700°N, 79.7783°E)
Time: 16:26:41
(UTC+00:00)

ASC 2 Rocket - Pass Details

Date: 15 November 2019
Orbit: 556 x 2345 km, 24.0° (Epoch: 11 December)

Event Time Altitude Azimuth Distance (km) Brightness Sun altitude
Exits shadow 00:11:51 10° 283° (WNW) 3,080 5.9 -8.9°
Maximum altitude 00:19:01 68° 201° (SSW) 919 3.9 -7.3°
Drops below altitude 10° 00:23:54 10° 119° (ESE) 2,130 7.5 -6.1°
Sets 00:25:57 0° 116° (ESE) 2,920 8.9 -5.7°
